• In Deutschland
  • Länderverzeichnis
  • Für 7 Tage
  • Wassertemperatur
  • Satellitenkarten
  • Wetterkarte
  • Widgets
  • user-avatar
    Anmelden

    Stündliche Wetter Oran

    Heute, 21 November, Dienstag

    Zeit Temperatur Niederschläge Wind Luftdruck Luftfeuchtigkeit
    00:00 +16°C° 0 mm 2 m/S 756 mmHg 32%
    01:00 +15°C° 0 mm 1 m/S 756 mmHg 32%
    02:00 +15°C° 0 mm 1 m/S 756 mmHg 32%
    03:00 +15°C° 0 mm 1 m/S 756 mmHg 31%
    04:00 +14°C° 0 mm 1 m/S 756 mmHg 31%
    05:00 +14°C° 0 mm 1 m/S 756 mmHg 30%
    06:00 +14°C° 0 mm 1 m/S 756 mmHg 30%
    07:00 +16°C° 0 mm 1 m/S 756 mmHg 26%
    08:00 +19°C° 0 mm 1 m/S 756 mmHg 23%
    09:00 +21°C° 0 mm 1 m/S 756 mmHg 20%
    10:00 +22°C° 0 mm 1 m/S 756 mmHg 18%
    11:00 +23°C° 0 mm 1 m/S 756 mmHg 17%
    12:00 +22°C° 0 mm 0 m/S 756 mmHg 16%
    13:00 +24°C° 0 mm 1 m/S 755 mmHg 16%
    14:00 +24°C° 0 mm 1 m/S 755 mmHg 16%
    15:00 +25°C° 0 mm 1 m/S 754 mmHg 16%
    16:00 +23°C° 0 mm 1 m/S 754 mmHg 19%
    17:00 +21°C° 0 mm 1 m/S 754 mmHg 23%
    18:00 +19°C° 0 mm 1 m/S 754 mmHg 26%
    19:00 +19°C° 0 mm 1 m/S 754 mmHg 27%
    20:00 +18°C° 0 mm 1 m/S 754 mmHg 28%
    21:00 +18°C° 0 mm 1 m/S 754 mmHg 29%
    22:00 +16°C° 0 mm 1 m/S 754 mmHg 29%
    23:00 +16°C° 0 mm 1 m/S 754 mmHg 28%

    Morgen, 22 November, Mittwoch

    Zeit Temperatur Niederschläge Wind Luftdruck Luftfeuchtigkeit
    00:00 +16°C° 0 mm 1 m/S 754 mmHg 28%
    01:00 +15°C° 0 mm 1 m/S 754 mmHg 28%
    02:00 +15°C° 0 mm 1 m/S 754 mmHg 28%
    03:00 +15°C° 0 mm 1 m/S 753 mmHg 29%
    04:00 +14°C° 0 mm 1 m/S 753 mmHg 29%
    05:00 +14°C° 0 mm 1 m/S 753 mmHg 29%
    06:00 +14°C° 0 mm 1 m/S 753 mmHg 29%
    07:00 +16°C° 0 mm 1 m/S 753 mmHg 26%
    08:00 +19°C° 0 mm 1 m/S 753 mmHg 23%
    09:00 +21°C° 0 mm 1 m/S 754 mmHg 20%
    10:00 +22°C° 0 mm 1 m/S 753 mmHg 19%
    11:00 +23°C° 0 mm 1 m/S 753 mmHg 17%
    12:00 +24°C° 0 mm 1 m/S 753 mmHg 16%
    13:00 +24°C° 0 mm 2 m/S 753 mmHg 17%
    14:00 +24°C° 0 mm 2 m/S 753 mmHg 18%
    15:00 +24°C° 0 mm 3 m/S 752 mmHg 18%
    16:00 +21°C° 0 mm 2 m/S 753 mmHg 24%
    17:00 +20°C° 0 mm 1 m/S 753 mmHg 30%
    18:00 +16°C° 0 mm 0 m/S 753 mmHg 36%
    19:00 +18°C° 0 mm 1 m/S 753 mmHg 35%
    20:00 +16°C° 0 mm 1 m/S 753 mmHg 34%
    21:00 +16°C° 0 mm 1 m/S 754 mmHg 33%
    22:00 +16°C° 0 mm 1 m/S 754 mmHg 33%
    23:00 +15°C° 0 mm 1 m/S 754 mmHg 32%

    übermorgen, 23 November, Donnerstag

    Zeit Temperatur Niederschläge Wind Luftdruck Luftfeuchtigkeit
    00:00 +15°C° 0 mm 1 m/S 754 mmHg 32%
    01:00 +14°C° 0 mm 1 m/S 754 mmHg 32%
    02:00 +14°C° 0 mm 1 m/S 754 mmHg 32%
    03:00 +14°C° 0 mm 1 m/S 754 mmHg 33%
    04:00 +13°C° 0 mm 1 m/S 754 mmHg 33%
    05:00 +13°C° 0 mm 1 m/S 754 mmHg 32%
    06:00 +13°C° 0 mm 1 m/S 754 mmHg 32%
    07:00 +15°C° 0 mm 1 m/S 755 mmHg 28%
    08:00 +18°C° 0 mm 1 m/S 755 mmHg 24%
    09:00 +21°C° 0 mm 1 m/S 756 mmHg 19%
    10:00 +22°C° 0 mm 1 m/S 756 mmHg 18%
    11:00 +23°C° 0 mm 1 m/S 756 mmHg 16%
    12:00 +22°C° 0 mm 0 m/S 756 mmHg 14%
    13:00 +24°C° 0 mm 1 m/S 755 mmHg 14%
    14:00 +24°C° 0 mm 1 m/S 755 mmHg 14%
    15:00 +24°C° 0 mm 2 m/S 755 mmHg 14%
    16:00 +21°C° 0 mm 2 m/S 755 mmHg 18%
    17:00 +20°C° 0 mm 2 m/S 755 mmHg 21%
    18:00 +18°C° 0 mm 2 m/S 755 mmHg 25%
    19:00 +18°C° 0 mm 2 m/S 756 mmHg 25%
    20:00 +17°C° 0 mm 2 m/S 756 mmHg 25%
    21:00 +16°C° 0 mm 2 m/S 756 mmHg 25%
    22:00 +16°C° 0 mm 2 m/S 756 mmHg 25%
    23:00 +16°C° 0 mm 2 m/S 756 mmHg 24%

    24 November, Freitag

    Zeit Temperatur Niederschläge Wind Luftdruck Luftfeuchtigkeit
    00:00 +15°C° 0 mm 2 m/S 756 mmHg 24%
    01:00 +15°C° 0 mm 2 m/S 755 mmHg 23%
    02:00 +15°C° 0 mm 2 m/S 755 mmHg 23%
    03:00 +15°C° 0 mm 2 m/S 755 mmHg 23%
    04:00 +14°C° 0 mm 2 m/S 755 mmHg 23%
    05:00 +14°C° 0 mm 2 m/S 755 mmHg 23%
    06:00 +13°C° 0 mm 3 m/S 755 mmHg 23%
    07:00 +16°C° 0 mm 3 m/S 755 mmHg 22%
    08:00 +17°C° 0 mm 3 m/S 756 mmHg 20%
    09:00 +19°C° 0 mm 3 m/S 756 mmHg 18%
    10:00 +21°C° 0 mm 2 m/S 756 mmHg 16%
    11:00 +23°C° 0 mm 1 m/S 755 mmHg 14%
    12:00 +25°C° 0 mm 1 m/S 755 mmHg 12%
    13:00 +25°C° 0 mm 1 m/S 755 mmHg 12%
    14:00 +25°C° 0 mm 1 m/S 754 mmHg 12%
    15:00 +25°C° 0 mm 1 m/S 754 mmHg 12%
    16:00 +23°C° 0 mm 2 m/S 754 mmHg 15%
    17:00 +20°C° 0 mm 2 m/S 754 mmHg 19%
    18:00 +18°C° 0 mm 2 m/S 754 mmHg 22%
    19:00 +18°C° 0 mm 2 m/S 754 mmHg 23%
    20:00 +17°C° 0 mm 2 m/S 755 mmHg 24%
    21:00 +17°C° 0 mm 2 m/S 755 mmHg 25%
    22:00 +16°C° 0 mm 2 m/S 755 mmHg 25%
    23:00 +16°C° 0 mm 2 m/S 755 mmHg 24%

    25 November, Samstag

    Zeit Temperatur Niederschläge Wind Luftdruck Luftfeuchtigkeit
    00:00 +16°C° 0 mm 1 m/S 755 mmHg 24%
    01:00 +16°C° 0 mm 2 m/S 755 mmHg 25%
    02:00 +16°C° 0 mm 2 m/S 755 mmHg 25%
    03:00 +15°C° 0 mm 2 m/S 754 mmHg 25%
    04:00 +15°C° 0 mm 2 m/S 755 mmHg 25%
    05:00 +15°C° 0 mm 2 m/S 755 mmHg 26%
    06:00 +15°C° 0 mm 2 m/S 755 mmHg 26%
    07:00 +16°C° 0 mm 2 m/S 755 mmHg 24%
    08:00 +18°C° 0 mm 3 m/S 755 mmHg 22%
    09:00 +19°C° 0 mm 3 m/S 755 mmHg 20%
    10:00 +21°C° 0 mm 2 m/S 755 mmHg 18%
    11:00 +24°C° 0 mm 2 m/S 755 mmHg 16%
    12:00 +25°C° 0 mm 2 m/S 754 mmHg 14%
    13:00 +25°C° 0 mm 2 m/S 754 mmHg 14%
    14:00 +25°C° 0 mm 2 m/S 754 mmHg 14%
    15:00 +26°C° 0 mm 3 m/S 753 mmHg 14%
    16:00 +24°C° 0 mm 3 m/S 753 mmHg 17%
    17:00 +22°C° 0 mm 3 m/S 754 mmHg 20%
    18:00 +20°C° 0 mm 3 m/S 754 mmHg 23%
    19:00 +20°C° 0 mm 3 m/S 754 mmHg 24%
    20:00 +20°C° 0 mm 3 m/S 754 mmHg 24%
    21:00 +19°C° 0 mm 3 m/S 755 mmHg 25%
    22:00 +19°C° 0 mm 2 m/S 755 mmHg 26%
    23:00 +19°C° 0 mm 2 m/S 755 mmHg 26%

    26 November, Sonntag

    Zeit Temperatur Niederschläge Wind Luftdruck Luftfeuchtigkeit
    00:00 +18°C° 0 mm 2 m/S 755 mmHg 27%
    01:00 +18°C° 0 mm 2 m/S 755 mmHg 29%
    02:00 +18°C° 0 mm 2 m/S 755 mmHg 30%
    03:00 +17°C° 0 mm 2 m/S 755 mmHg 32%
    04:00 +17°C° 0 mm 2 m/S 755 mmHg 32%
    05:00 +17°C° 0 mm 2 m/S 755 mmHg 33%
    06:00 +17°C° 0 mm 2 m/S 755 mmHg 34%
    07:00 +18°C° 0 mm 2 m/S 755 mmHg 32%
    08:00 +19°C° 0 mm 2 m/S 756 mmHg 31%
    09:00 +20°C° 0 mm 2 m/S 756 mmHg 30%
    10:00 +21°C° 0 mm 2 m/S 756 mmHg 28%
    11:00 +23°C° 0 mm 2 m/S 756 mmHg 26%
    12:00 +24°C° 0 mm 3 m/S 756 mmHg 25%
    13:00 +24°C° 0 mm 3 m/S 756 mmHg 26%
    14:00 +23°C° 0 mm 4 m/S 756 mmHg 27%
    15:00 +23°C° 0 mm 4 m/S 756 mmHg 28%
    16:00 +22°C° 0 mm 4 m/S 756 mmHg 34%
    17:00 +20°C° 0 mm 4 m/S 757 mmHg 39%
    18:00 +19°C° 0 mm 4 m/S 757 mmHg 45%
    19:00 +18°C° 0 mm 4 m/S 757 mmHg 50%
    20:00 +17°C° 0 mm 3 m/S 758 mmHg 55%
    21:00 +17°C° 0 mm 3 m/S 758 mmHg 60%
    22:00 +16°C° 0 mm 3 m/S 758 mmHg 62%
    23:00 +16°C° 0 mm 3 m/S 758 mmHg 64%
    Mehr zeigen